TimeCST,TemperatureF,Dew PointF,Humidity,Sea Level PressureIn,VisibilityMPH,Wind Direction,Wind SpeedMPH,Gust SpeedMPH,PrecipitationIn,Events,Conditions,WindDirDegrees,DateUTC
12:53 AM,33.1,32.0,96,29.89,10.0,West,16.1,25.3,N/A,,Overcast,260,2013-02-22 06:53:00
1:41 AM,28.4,28.4,100,29.90,9.0,West,18.4,24.2,N/A,,Overcast,260,2013-02-22 07:41:00
1:53 AM,28.0,26.1,92,29.94,10.0,West,20.7,25.3,N/A,,Overcast,280,2013-02-22 07:53:00
2:49 AM,26.6,21.2,80,29.90,10.0,West,16.1,21.9,N/A,,Scattered Clouds,270,2013-02-22 08:49:00
2:53 AM,25.0,21.0,85,29.93,10.0,West,10.4,21.9,N/A,,Partly Cloudy,280,2013-02-22 08:53:00
3:53 AM,23.0,19.0,85,29.94,10.0,West,9.2,-,N/A,,Clear,280,2013-02-22 09:53:00
4:53 AM,21.9,17.1,82,29.96,10.0,West,6.9,-,N/A,,Clear,280,2013-02-22 10:53:00
5:53 AM,21.9,18.0,85,30.00,10.0,West,9.2,-,N/A,,Clear,260,2013-02-22 11:53:00
6:53 AM,21.0,18.0,88,30.01,10.0,West,6.9,-,N/A,,Clear,270,2013-02-22 12:53:00
7:53 AM,21.0,18.0,88,30.04,10.0,WNW,6.9,-,N/A,,Clear,290,2013-02-22 13:53:00
8:53 AM,23.0,19.9,88,30.08,10.0,West,8.1,-,N/A,,Mostly Cloudy,260,2013-02-22 14:53:00
9:53 AM,24.1,19.9,84,30.10,10.0,West,8.1,-,N/A,,Mostly Cloudy,280,2013-02-22 15:53:00
10:53 AM,26.1,19.0,75,30.11,10.0,West,6.9,-,N/A,,Mostly Cloudy,270,2013-02-22 16:53:00
11:00 AM,26.6,21.2,80,30.08,10.0,West,6.9,-,N/A,,Scattered Clouds,270,2013-02-22 17:00:00
11:09 AM,28.4,21.2,74,30.08,10.0,Variable,6.9,-,N/A,,Mostly Cloudy,0,2013-02-22 17:09:00
11:16 AM,28.4,21.2,74,30.08,10.0,West,10.4,-,N/A,,Scattered Clouds,260,2013-02-22 17:16:00
11:53 AM,30.0,21.0,69,30.10,10.0,West,10.4,-,N/A,,Clear,270,2013-02-22 17:53:00
12:53 PM,33.1,21.9,64,30.09,10.0,WNW,6.9,-,N/A,,Clear,300,2013-02-22 18:53:00
1:53 PM,34.0,21.0,59,30.07,10.0,West,6.9,-,N/A,,Clear,280,2013-02-22 19:53:00
2:53 PM,36.0,21.9,57,30.07,10.0,West,9.2,-,N/A,,Clear,280,2013-02-22 20:53:00
3:53 PM,36.0,21.9,57,30.06,10.0,WNW,6.9,-,N/A,,Clear,300,2013-02-22 21:53:00
4:53 PM,36.0,21.9,57,30.06,10.0,NW,5.8,-,N/A,,Clear,320,2013-02-22 22:53:00
5:53 PM,32.0,21.9,66,30.07,10.0,NNW,6.9,-,N/A,,Clear,330,2013-02-22 23:53:00
6:53 PM,28.9,21.0,72,30.08,10.0,NNW,5.8,-,N/A,,Clear,340,2013-02-23 00:53:00
7:53 PM,28.0,21.0,75,30.09,10.0,NW,4.6,-,N/A,,Clear,320,2013-02-23 01:53:00
8:53 PM,28.0,21.9,78,30.11,10.0,NNW,4.6,-,N/A,,Clear,340,2013-02-23 02:53:00
9:53 PM,27.0,23.0,85,30.12,10.0,North,4.6,-,N/A,,Clear,10,2013-02-23 03:53:00
10:53 PM,26.1,21.9,84,30.14,10.0,NNW,3.5,-,N/A,,Clear,330,2013-02-23 04:53:00
11:53 PM,25.0,21.9,88,30.13,10.0,NNW,3.5,-,N/A,,Partly Cloudy,330,2013-02-23 05:53:00